sat.trackr.live / text

‹ back to catalog

STARLINK-32883

NORAD 62806 · 2025-018A

PAYLOAD ACTIVE UNKNOWN

§ Identity

Operator
Country
US
Launch date
2025-01-24
Launch site
AFWTR
Launch vehicle
Mass (kg)
RCS (m²)

Purposes: comms

External: N2YO · Heavens-Above · Gunter

§ Orbital elements

Epoch: 2026-05-25T04:47:42.230112Z

Period
94.10 min
Inclination
53.1608°
Eccentricity
0.0001061
Mean motion
15.30254138 rev/d
Perigee alt
474.3 km
Apogee alt
475.8 km
Semi-major
6,853.2 km
B*
1.4379e-3
RAAN
314.1370°
Arg perigee
68.3269°
Mean anomaly
291.7844°
Rev number
7,580

§ Raw data

STARLINK-328831 62806U 25018A   26145.19979433  .00042543  00000+0  14379-2 0  99942 62806  53.1608 314.1370 0001061  68.3269 291.7844 15.30254138 75805

JSON: /api/v1/satellites/62806 · /tle

For live sub-satellite position, see the globe view (requires WebGL).

§ Visibility from observer

Set your observer location to see the next 7 days of passes ≥ 10°. The values pass through the URL so the page stays shareable.

No JS? Fill the form by hand. The geolocation button needs JavaScript.